This is the latest recevied weather packets stored in our database for station/object N3WGC-14. If no packets are shown the sender has not sent any weather packets the latest 10 day(s).
| Time | Temp. | Humidity | Pressure | Rain* | Wind** | Luminosity | Snow |
|---|---|---|---|---|---|---|---|
| 1777921939 | 22.78° C | 43% | 1011.8 hPa | 0 mm | - | - | - |
| 1777921638 | 22.78° C | 43% | 1011.9 hPa | 0 mm | - | - | - |
| 1777921338 | 22.78° C | 45% | 1012 hPa | 0 mm | - | - | - |
| 1777921038 | 22.78° C | 45% | 1012.1 hPa | 0 mm | - | - | - |
| 1777920738 | 22.22° C | 44% | 1012.2 hPa | 0 mm | - | - | - |
| 1777920438 | 22.22° C | 44% | 1012.2 hPa | 0 mm | - | - | - |
| 1777920138 | 22.78° C | 46% | 1012.3 hPa | 0 mm | - | - | - |
| 1777919837 | 22.22° C | 43% | 1012.3 hPa | 0 mm | - | - | - |
| 1777919537 | 22.22° C | 42% | 1012.3 hPa | 0 mm | - | - | - |
| 1777919237 | 22.22° C | 42% | 1012.4 hPa | 0 mm | - | - | - |
| 1777918937 | 22.22° C | 42% | 1012.4 hPa | 0 mm | - | - | - |
| 1777918637 | 22.22° C | 42% | 1012.6 hPa | 0 mm | - | - | - |
| 1777918337 | 22.22° C | 43% | 1012.7 hPa | 0 mm | - | - | - |
| 1777918037 | 21.67° C | 42% | 1012.7 hPa | 0 mm | - | - | - |
| 1777917736 | 22.22° C | 40% | 1012.8 hPa | 0 mm | - | - | - |
| 1777917436 | 21.67° C | 41% | 1012.7 hPa | 0 mm | - | - | - |
| 1777917136 | 21.67° C | 42% | 1012.8 hPa | 0 mm | - | - | - |
| 1777916836 | 21.67° C | 40% | 1012.9 hPa | 0 mm | - | - | - |
| 1777916536 | 21.11° C | 39% | 1013 hPa | 0 mm | - | - | - |
| 1777916206 | 21.11° C | 43% | 1012.9 hPa | 0 mm | - | - | - |
| 1777915905 | 21.11° C | 44% | 1013.1 hPa | 0 mm | - | - | - |
| 1777915605 | 21.11° C | 48% | 1013 hPa | 0 mm | - | - | - |
| 1777915305 | 21.11° C | 46% | 1013.2 hPa | 0 mm | - | - | - |
| 1777915005 | 21.11° C | 47% | 1013.2 hPa | 0 mm | - | - | - |
| 1777914705 | 21.11° C | 47% | 1013.2 hPa | 0 mm | - | - | - |
* Rain latest hour (hover to see other rain measurements)
** Current wind speed in m/s (hover to see current wind gust speed)